FW7026 Weather Reports


Display with metric or nautical units.
time (UTC)temp
F
wind
direction
speed
MPH
gust
MPH
rain 1hr
in
rain 24hr
in
rain mn
in
humidity
%
barometer
mb
20260904174826 68 347 0.0 0.0 0.00 0.18 0.18 86 1006.4
20260904174323 68 347 0.0 0.0 0.00 0.18 0.18 86 1006.4
20260904173818 68 347 0.0 0.0 0.00 0.18 0.18 86 1006.4
20260904172129 66 173 0.0 0.0 0.00 0.18 0.18 90 1006.4
20260904171625 66 173 0.0 0.0 0.00 0.18 0.18 90 1006.4
20260904171120 66 173 0.0 0.0 0.00 0.18 0.18 90 1006.4
20260904165419 65 215 0.0 0.0 0.85 0.18 0.18 89 1007.1
20260904164918 65 215 0.0 0.0 0.85 0.18 0.18 89 1007.1
20260904164418 65 215 0.0 0.0 0.85 0.18 0.18 89 1007.1
20260904162730 65 7 0.0 0.0 0.00 0.01 0.01 92 1007.1
20260904162225 65 7 0.0 0.0 0.00 0.01 0.01 92 1007.1
20260904161720 65 7 0.0 0.0 0.00 0.01 0.01 92 1007.1
20260904160027 64 191 0.0 0.0 0.00 0.01 0.01 92 1007.1
20260904155520 64 191 0.0 0.0 0.00 0.01 0.01 92 1007.1
20260904155020 64 191 0.0 0.0 0.00 0.01 0.01 92 1007.1
20260904153330 65 196 0.0 0.0 0.00 0.01 0.01 93 1007.4
20260904152826 65 196 0.0 0.0 0.00 0.01 0.01 93 1007.4
20260904152320 65 196 0.0 0.0 0.00 0.01 0.01 93 1007.4
20260904150625 63 189 0.0 0.0 0.00 0.01 0.01 93 1007.4
20260904150120 63 189 0.0 0.0 0.00 0.01 0.01 93 1007.4
20260904145618 63 189 0.0 0.0 0.00 0.01 0.01 93 1007.4
20260904143926 63 180 0.0 0.0 0.00 0.01 0.01 93 1007.4
20260904143423 63 180 0.0 0.0 0.00 0.01 0.01 93 1007.4
20260904142919 63 180 0.0 0.0 0.00 0.01 0.01 93 1007.4
20260904141230 62 183 0.0 0.0 0.00 0.01 0.01 93 1007.7
20260904140725 62 183 0.0 0.0 0.00 0.01 0.01 93 1007.7
20260904140220 62 183 0.0 0.0 0.00 0.01 0.01 93 1007.7
20260904134530 62 183 0.0 0.0 0.00 0.01 0.01 93 1007.7
20260904134025 62 183 0.0 0.0 0.00 0.01 0.01 93 1007.7
20260904133519 62 183 0.0 0.0 0.00 0.01 0.01 93 1007.7
20260904131824 61 178 0.0 0.0 0.00 0.01 0.01 93 1007.4
20260904131320 61 178 0.0 0.0 0.00 0.01 0.01 93 1007.4
20260904130819 61 178 0.0 0.0 0.00 0.01 0.01 93 1007.4
20260904125125 61 190 0.0 0.0 0.00 0.01 0.01 93 1007.7
20260904124624 61 190 0.0 0.0 0.00 0.01 0.01 93 1007.7
20260904124120 61 190 0.0 0.0 0.00 0.01 0.01 93 1007.7
20260904122425 60 199 0.0 0.0 0.00 0.01 0.01 93 1007.7
20260904121920 60 199 0.0 0.0 0.00 0.01 0.01 93 1007.7
20260904121416 60 199 0.0 0.0 0.00 0.01 0.01 93 1007.7
20260904115724 60 202 0.0 0.0 0.00 0.01 0.01 93 1007.7
20260904115223 60 202 0.0 0.0 0.00 0.01 0.01 93 1007.7
20260904114719 60 202 0.0 0.0 0.00 0.01 0.01 93 1007.7
20260904113027 60 192 0.0 0.0 0.00 0.01 0.01 93 1007.7
20260904112522 60 192 0.0 0.0 0.00 0.01 0.01 93 1007.7
20260904112018 60 192 0.0 0.0 0.00 0.01 0.01 93 1007.7
20260904110324 60 192 0.0 0.0 0.00 0.01 0.01 93 1007.7
20260904105819 60 192 0.0 0.0 0.00 0.01 0.01 93 1007.7
20260904105319 60 192 0.0 0.0 0.00 0.01 0.01 93 1007.7
20260904103626 60 181 0.0 0.0 0.00 0.01 0.01 93 1007.7
20260904103121 60 181 0.0 0.0 0.00 0.01 0.01 93 1007.7
20260904102617 60 181 0.0 0.0 0.00 0.01 0.01 93 1007.7
20260904100931 60 183 0.0 0.0 0.00 0.01 0.01 93 1007.4
20260904100426 60 183 0.0 0.0 0.00 0.01 0.01 93 1007.4
20260904095920 60 183 0.0 0.0 0.00 0.01 0.01 93 1007.4
20260904094225 60 195 0.0 0.0 0.00 0.01 0.01 93 1007.4
20260904093721 60 195 0.0 0.0 0.00 0.01 0.01 93 1007.4
20260904093220 60 195 0.0 0.0 0.00 0.01 0.01 93 1007.4
20260904091525 60 186 0.0 0.0 0.00 0.01 0.01 93 1007.4
20260904091024 60 186 0.0 0.0 0.00 0.01 0.01 93 1007.4
20260904090519 60 186 0.0 0.0 0.00 0.01 0.01 93 1007.4
20260904084826 60 159 0.0 0.0 0.07 0.01 0.01 93 1007.7
20260904084322 60 159 0.0 0.0 0.07 0.01 0.01 93 1007.7
20260904083817 60 159 0.0 0.0 0.07 0.01 0.01 93 1007.7
20260904082129 60 195 0.0 0.0 0.00 0.00 0.00 93 1007.7
20260904081624 60 195 0.0 0.0 0.00 0.00 0.00 93 1007.7
20260904081119 60 195 0.0 0.0 0.00 0.00 0.00 93 1007.7
20260904075427 60 195 0.0 0.0 0.00 0.00 0.00 93 1007.7
20260904074925 60 195 0.0 0.0 0.00 0.00 0.00 93 1007.7
20260904074421 60 195 0.0 0.0 0.00 0.00 0.00 93 1007.7
20260904072724 60 199 0.0 0.0 0.00 0.00 0.00 93 1007.7
20260904072223 60 199 0.0 0.0 0.00 0.00 0.00 93 1007.7
20260904071719 60 199 0.0 0.0 0.00 0.00 0.00 93 1007.7
20260904070027 60 170 0.0 0.0 0.00 0.00 0.00 93 1008.1
20260904065522 60 170 0.0 0.0 0.00 0.00 0.00 93 1008.1
20260904065018 60 170 0.0 0.0 0.00 0.00 0.00 93 1008.1
20260904063326 60 168 0.0 0.0 0.00 0.00 0.00 93 1008.4
20260904062820 60 168 0.0 0.0 0.00 0.00 0.00 93 1008.4
20260904062316 60 168 0.0 0.0 0.00 0.00 0.00 93 1008.4
20260904060631 60 196 0.0 0.0 0.00 0.00 0.00 93 1008.8
20260904060121 60 196 0.0 0.0 0.00 0.00 0.00 93 1008.8
20260904055621 60 196 0.0 0.0 0.00 0.00 0.00 93 1008.8
20260904053923 60 189 0.0 0.0 0.00 0.00 0.00 93 1008.8
20260904053422 60 189 0.0 0.0 0.00 0.00 0.00 93 1008.8
20260904052917 60 189 0.0 0.0 0.00 0.00 0.00 93 1008.8
20260904051225 60 214 0.0 0.0 0.00 0.00 0.00 93 1008.8
20260904050720 60 214 0.0 0.0 0.00 0.00 0.00 93 1008.8
20260904050216 60 195 0.0 0.0 0.00 0.00 0.00 93 1008.8
20260904044528 60 199 0.0 0.0 0.00 0.00 0.00 93 1009.1
20260904044024 60 199 0.0 0.0 0.00 0.00 0.00 93 1009.1
20260904043520 60 199 0.0 0.0 0.00 0.00 0.00 93 1009.1
20260904041825 60 196 0.0 0.0 0.00 0.00 0.00 93 1009.9
20260904041322 60 196 0.0 0.0 0.00 0.00 0.00 93 1009.9
20260904040817 60 196 0.0 0.0 0.00 0.00 0.00 93 1009.9
20260904035124 60 191 0.0 0.0 0.00 0.63 0.63 93 1009.5
20260904034624 60 191 0.0 0.0 0.00 0.63 0.63 93 1009.5
20260904034119 60 191 0.0 0.0 0.00 0.63 0.63 93 1009.5
20260904032422 60 190 0.0 0.0 0.00 0.63 0.63 93 1009.9
20260904031921 60 190 0.0 0.0 0.00 0.63 0.63 93 1009.9
20260904031417 60 190 0.0 0.0 0.00 0.63 0.63 93 1009.9
20260904025730 60 200 0.0 0.0 0.00 0.63 0.63 93 1009.9
20260904025224 60 200 0.0 0.0 0.00 0.63 0.63 93 1009.9
20260904024720 60 200 0.0 0.0 0.00 0.63 0.63 93 1009.9
20260904023021 60 200 0.0 0.0 0.00 0.63 0.63 93 1010.2
20260904022520 60 200 0.0 0.0 0.00 0.63 0.63 93 1010.2
20260904022018 60 200 0.0 0.0 0.00 0.63 0.63 93 1010.2
20260904020323 60 203 0.0 0.0 0.00 0.63 0.63 93 1010.6
20260904015822 60 203 0.0 0.0 0.00 0.63 0.63 93 1010.6
20260904015317 60 203 0.0 0.0 0.00 0.63 0.63 93 1010.6
20260904013629 60 205 0.0 0.0 0.00 0.63 0.63 93 1010.6
20260904013124 60 205 0.0 0.0 0.00 0.63 0.63 93 1010.6
20260904012619 60 205 0.0 0.0 0.00 0.63 0.63 93 1010.6
20260904010923 60 175 0.0 0.0 0.00 0.63 0.63 93 1010.6
20260904010420 60 175 0.0 0.0 0.00 0.63 0.63 93 1010.6
20260904005919 60 175 0.0 0.0 0.00 0.63 0.63 93 1010.6
20260904004225 60 228 0.0 0.0 0.07 0.63 0.63 93 1010.6
20260904003720 60 228 0.0 0.0 0.07 0.63 0.63 93 1010.6
20260904003216 60 228 0.0 0.0 0.07 0.63 0.63 93 1010.6
20260904001522 60 182 0.0 0.0 0.07 0.59 0.59 93 1010.9
20260904001021 60 182 0.0 0.0 0.07 0.59 0.59 93 1010.9
20260904000521 60 182 0.0 0.0 0.07 0.59 0.59 93 1010.9
20260903234826 60 22 0.0 0.0 0.07 0.57 0.57 93 1010.6
20260903234323 60 22 0.0 0.0 0.07 0.57 0.57 93 1010.6
20260903233819 60 22 0.0 0.0 0.07 0.57 0.57 93 1010.6
20260903232126 60 129 0.0 0.0 0.07 0.53 0.53 93 1010.6
20260903231620 60 129 0.0 0.0 0.07 0.53 0.53 93 1010.6
20260903231120 60 129 0.0 0.0 0.07 0.53 0.53 93 1010.6
20260903225427 60 149 0.0 0.0 0.07 0.48 0.48 93 1010.9
20260903224924 60 149 0.0 0.0 0.07 0.48 0.48 93 1010.9
20260903224419 60 149 0.0 0.0 0.07 0.48 0.48 93 1010.9
20260903222721 61 142 0.0 0.0 0.14 0.45 0.45 93 1011.2
20260903222221 61 142 0.0 0.0 0.14 0.45 0.45 93 1011.2
20260903221721 61 142 0.0 0.0 0.14 0.45 0.45 93 1011.2
20260903220028 61 138 0.0 0.0 0.07 0.41 0.41 93 1011.2
20260903215522 61 138 0.0 0.0 0.07 0.41 0.41 93 1011.2
20260903215021 61 138 0.0 0.0 0.07 0.41 0.41 93 1011.2
20260903213327 61 134 0.0 0.0 0.00 0.39 0.39 93 1011.2
20260903212823 61 134 0.0 0.0 0.00 0.39 0.39 93 1011.2
20260903212319 61 134 0.0 0.0 0.00 0.39 0.39 93 1011.2
20260903210624 61 215 0.0 0.0 0.07 0.37 0.37 93 1011.6
20260903210120 61 215 0.0 0.0 0.07 0.37 0.37 93 1011.6
20260903205618 61 215 0.0 0.0 0.07 0.37 0.37 93 1011.6
20260903203924 61 223 0.0 0.0 0.00 0.34 0.34 93 1011.6
20260903203420 61 223 0.0 0.0 0.00 0.34 0.34 93 1011.6
20260903202919 61 223 0.0 0.0 0.00 0.34 0.34 93 1011.6
20260903201226 61 245 0.0 8.0 0.07 0.33 0.33 92 1011.6
20260903200724 61 245 0.0 8.0 0.07 0.33 0.33 92 1011.6
20260903200220 61 245 0.0 8.0 0.07 0.33 0.33 92 1011.6
20260903194527 61 165 0.0 2.0 0.07 0.31 0.31 92 1011.6
20260903194022 61 165 0.0 2.0 0.07 0.31 0.31 92 1011.6
20260903193518 61 165 0.0 2.0 0.07 0.31 0.31 92 1011.6
20260903191824 60 254 1.0 10.0 0.07 0.30 0.30 92 1011.9
20260903191320 60 254 1.0 10.0 0.07 0.30 0.30 92 1011.9
20260903190819 60 254 1.0 10.0 0.07 0.30 0.30 92 1011.9
20260903185129 60 246 0.0 8.0 0.00 0.28 0.28 92 1012.2
20260903184626 60 246 0.0 8.0 0.00 0.28 0.28 92 1012.2
20260903184121 60 246 0.0 8.0 0.00 0.28 0.28 92 1012.2
20260903182429 60 251 0.0 10.0 0.00 0.27 0.27 92 1012.2
20260903181924 60 251 0.0 10.0 0.00 0.27 0.27 92 1012.2
20260903181418 60 251 0.0 10.0 0.00 0.27 0.27 92 1012.2